Back to catalog

STARLINK-36842

AliveCommunicationsSSO
NORAD 67884·PAYLOAD·🇺🇸 United States

Launched Feb 21, 2026 from Vandenberg Space Force Base

Loading…

Next Passes (next 24 hours)

TLE

FreshSource: CelesTrak SupGP

Epoch: Sep 14, 2026, 22:45 UTC

1 67884C 26035F   26257.94840278 -.00058265  00000+0 -18091-2 0  2578
2 67884  97.2846 189.8104 0001746  93.0900  60.8602 15.33460204    12

Track STARLINK-36842 in real time with AllMySat

Download on the App Store